Regional Weather Roundup
Issued by NWS

Home | Current Version | Previous Version | Text Only | Print | Product List | Glossary On
Versions: 1 2 3 4 5 6 7 8 9 10 11 12 13 14 15 16 17 18 19 20 21 22 23 24 25 26 27 28 29 30 31 32 33 34 35 36 37 38 39 40 41 42 43 44 45 46 47 48 49 50
000
ASUS42 KFFC 092210
RWRGA
WEATHER ROUNDUP FOR GEORGIA
NATIONAL WEATHER SERVICE PEACHTREE CITY GA
500 PM EST FRI DEC 09 2016

NOTE: "FAIR" INDICATES FEW OR NO CLOUDS BELOW 12,000 FEET WITH NO
SIGNIFICANT WEATHER AND/OR OBSTRUCTIONS TO VISIBILITY.

* = USE WITH CAUTION. THE STATIONS MARKED WITH AN ASTERISK MAY NOT
REPORT WEATHER SUCH AS PRECIPITATION, FOG, OR THUNDER AND ARE NOT
QUALITY CONTROLLED BY NWS.

THE REMARK "TC" DENOTES TEMPERATURE READING IN DEGREES CELSIUS.

GAZ001>058-092300-
NORTH GEORGIA

CITY           SKY/WX    TMP DP  RH WIND       PRES   REMARKS
ATLANTA        CLEAR     40  15  36 N14       30.42R WCI  32
ATHENS         CLEAR     44  15  31 CALM      30.39R
CHAMBLEE       CLEAR     39  16  39 NW10      30.42R WCI  32
PEACHTREE CITY CLEAR     42  15  33 N10       30.43S
ROME           CLEAR     39  16  39 N9        30.47S WCI  33
WEST ATLANTA   CLEAR     40  15  36 NW10      30.44R WCI  33
GAINESVILLE    CLEAR     41  12  30 NW7       30.39R
CARTERSVILLE   CLEAR     38  17  42 N7        30.47S WCI  33


CITY           SKY/WX    TMP DP  RH WIND       PRES   REMARKS
DALTON*        CLEAR     36  19  51 N10       30.48F WCI  28
LAWRENCEVILLE* CLEAR     41  16  36 W15       30.42
MARIETTA       CLEAR     39  14  36 NW14      30.42S WCI  31
KENNESAW*      CLEAR     37  16  41 N8        30.41  WCI  31
CANTON*        CLEAR     36  10  35 NW10G17   30.43S WCI  28
$$

GAZ059>098-102>109-092300-
CENTRAL GEORGIA

CITY           SKY/WX    TMP DP  RH WIND       PRES   REMARKS
AUGUSTA-BUSH   CLEAR     49  15  25 N9        30.40R
AUGUSTA-DANIEL CLEAR     47  17  30 NW6       30.40R
COLUMBUS       CLEAR     47  14  26 N7        30.42R
MACON          CLEAR     48  14  25 N8        30.41R
ROBINS AFB     CLEAR     48  15  27 N7        30.40R


CITY           SKY/WX    TMP DP  RH WIND       PRES   REMARKS
LAGRANGE*      CLEAR     45  20  36 N7        30.43R
SYLVANIA*      CLEAR    N/A N/A N/A CALM      30.40R
MILLEDGEVILLE* CLEAR     46  23  39 CALM      30.40S
$$

GAZ099>101-110>166-092300-
SOUTH GEORGIA

CITY           SKY/WX    TMP DP  RH WIND       PRES   REMARKS
SAVANNAH       CLEAR     50  18  28 N8        30.39R
VALDOSTA       CLEAR     50  19  29 CALM      30.38R
ALMA           CLEAR     50  21  32 N7        30.39R
ST SIMONS      CLEAR     52  29  41 NE7       30.36R
FT STEWART     CLEAR     50  22  33 CALM      30.37R
ALBANY         CLEAR     51  15  23 N5        30.42R
HUNTER AFB     CLEAR     50  25  37 N7        30.35R
MOODY AFB      CLEAR     51  17  26 N9        30.37R
BRUNSWICK      CLEAR     52  30  43 N3        30.37S


CITY           SKY/WX    TMP DP  RH WIND       PRES   REMARKS
BAINBRIDGE*    CLEAR     52  21  30 N6        30.41R
MOULTRIE*      CLEAR     50  21  32 N6        30.40R
VIDALIA*       CLEAR     50  28  43 N5        30.40R
WAYCROSS*      CLEAR     54  25  33 N5        30.38R
$$



USA.gov is the U.S. government's official web portal to all federal, state and local government web resources and services.